ASTRA 1G

Last updated on Thu Jul 13 2023 00:02:42 GMT+0000 (Coordinated Universal Time)

1 25071U 97076A 23193.52330664 .00000034 00000+0 00000+0 0 9996 2 25071 7.0150 64.2340 0009072 94.7110 211.5680 0.99035247 93799

Satellite not in orbit

ASTRA 1G